| time (UTC) | temp F | wind direction | speed knots | gust knots | rain 1hr in | rain 24hr in | rain mn in | humidity % | barometer mb |
| 20260906121203 | 72 | 79 | 0.9 | 2.6 | 0.00 | 0.43 | 0.00 | 96 | 1015.0 |
| 20260906120704 | 72 | 32 | 0.0 | 0.0 | 0.00 | 0.43 | 0.00 | 97 | 1015.0 |
| 20260906120203 | 71 | 32 | 0.0 | 0.0 | 0.00 | 0.43 | 0.00 | 97 | 1014.9 |
| 20260906114203 | 71 | 32 | 0.0 | 0.0 | 0.00 | 0.43 | 0.00 | 97 | 1014.7 |
| 20260906113704 | 71 | 32 | 0.0 | 0.0 | 0.00 | 0.43 | 0.00 | 98 | 1014.7 |
| 20260906113203 | 71 | 32 | 0.0 | 0.0 | 0.00 | 0.43 | 0.00 | 98 | 1014.6 |
| 20260906111704 | 71 | 32 | 0.0 | 0.0 | 0.00 | 0.43 | 0.00 | 98 | 1014.3 |
| 20260906111203 | 71 | 32 | 0.0 | 0.0 | 0.00 | 0.43 | 0.00 | 98 | 1014.3 |
| 20260906110704 | 71 | 32 | 0.0 | 0.0 | 0.00 | 0.43 | 0.00 | 98 | 1014.2 |
| 20260906110204 | 71 | 32 | 0.0 | 0.0 | 0.00 | 0.43 | 0.00 | 98 | 1014.1 |
| 20260906104704 | 71 | 32 | 0.0 | 0.0 | 0.00 | 0.43 | 0.00 | 98 | 1013.7 |
| 20260906104203 | 71 | 32 | 0.0 | 0.0 | 0.00 | 0.43 | 0.00 | 98 | 1013.6 |
| 20260906103703 | 71 | 32 | 0.0 | 0.0 | 0.00 | 0.43 | 0.00 | 98 | 1013.6 |
| 20260906103203 | 71 | 32 | 0.0 | 0.0 | 0.00 | 0.43 | 0.00 | 98 | 1013.6 |
| 20260906101703 | 71 | 32 | 0.0 | 0.0 | 0.00 | 0.43 | 0.00 | 98 | 1013.4 |
| 20260906101204 | 71 | 32 | 0.0 | 0.0 | 0.00 | 0.43 | 0.00 | 98 | 1013.4 |
| 20260906100703 | 71 | 32 | 0.0 | 0.0 | 0.00 | 0.43 | 0.00 | 98 | 1013.4 |
| 20260906100204 | 71 | 32 | 0.0 | 0.0 | 0.00 | 0.43 | 0.00 | 98 | 1013.4 |
| 20260906094704 | 71 | 32 | 0.0 | 0.0 | 0.00 | 0.43 | 0.00 | 98 | 1013.3 |
| 20260906094204 | 71 | 32 | 0.0 | 0.0 | 0.00 | 0.43 | 0.00 | 98 | 1013.2 |
| 20260906093703 | 71 | 32 | 0.0 | 0.0 | 0.00 | 0.43 | 0.00 | 98 | 1013.2 |
| 20260906093203 | 71 | 32 | 0.0 | 0.0 | 0.00 | 0.43 | 0.00 | 98 | 1013.2 |
| 20260906091703 | 70 | 32 | 0.0 | 0.0 | 0.00 | 0.43 | 0.00 | 98 | 1013.2 |
| 20260906091204 | 70 | 32 | 0.0 | 0.0 | 0.00 | 0.43 | 0.00 | 98 | 1013.3 |
| 20260906090704 | 70 | 32 | 0.0 | 0.0 | 0.00 | 0.43 | 0.00 | 98 | 1013.2 |
| 20260906090203 | 70 | 32 | 0.0 | 0.0 | 0.00 | 0.43 | 0.00 | 98 | 1013.1 |
| 20260906084703 | 70 | 32 | 0.0 | 0.0 | 0.00 | 0.43 | 0.00 | 98 | 1013.2 |
| 20260906084204 | 70 | 32 | 0.0 | 0.0 | 0.00 | 0.43 | 0.00 | 98 | 1013.2 |
| 20260906083704 | 70 | 32 | 0.0 | 0.0 | 0.00 | 0.43 | 0.00 | 98 | 1013.2 |
| 20260906081703 | 70 | 32 | 0.0 | 0.0 | 0.00 | 0.43 | 0.00 | 98 | 1013.3 |
| 20260906081203 | 70 | 32 | 0.0 | 0.0 | 0.00 | 0.43 | 0.00 | 98 | 1013.3 |
| 20260906080204 | 70 | 32 | 0.0 | 0.0 | 0.00 | 0.43 | 0.00 | 98 | 1013.3 |
| 20260906074703 | 70 | 32 | 0.0 | 0.0 | 0.00 | 0.43 | 0.00 | 98 | 1013.1 |
| 20260906074203 | 70 | 32 | 0.0 | 0.0 | 0.00 | 0.43 | 0.00 | 98 | 1013.1 |
| 20260906073704 | 70 | 32 | 0.0 | 0.0 | 0.00 | 0.43 | 0.00 | 98 | 1013.1 |
| 20260906073203 | 70 | 32 | 0.0 | 4.3 | 0.00 | 0.43 | 0.00 | 98 | 1013.0 |
| 20260906071704 | 71 | 35 | 2.6 | 4.3 | 0.00 | 0.43 | 0.00 | 98 | 1012.8 |
| 20260906071203 | 71 | 30 | 0.0 | 0.0 | 0.00 | 0.43 | 0.00 | 98 | 1012.8 |
| 20260906070703 | 71 | 30 | 0.0 | 0.0 | 0.00 | 0.43 | 0.00 | 98 | 1012.8 |
| 20260906070203 | 71 | 30 | 0.0 | 4.3 | 0.00 | 0.43 | 0.00 | 98 | 1012.7 |
| 20260906064204 | 71 | 28 | 0.0 | 0.0 | 0.00 | 0.43 | 0.00 | 98 | 1013.0 |
| 20260906063704 | 71 | 28 | 0.0 | 0.0 | 0.00 | 0.43 | 0.00 | 98 | 1013.0 |
| 20260906063204 | 71 | 28 | 0.0 | 0.0 | 0.00 | 0.43 | 0.00 | 98 | 1013.1 |
| 20260906061703 | 72 | 28 | 0.0 | 0.0 | 0.00 | 0.43 | 0.00 | 98 | 1013.0 |
| 20260906060703 | 72 | 28 | 0.0 | 0.0 | 0.00 | 0.43 | 0.00 | 98 | 1013.1 |
| 20260906060204 | 72 | 28 | 0.0 | 1.7 | 0.00 | 0.43 | 0.00 | 98 | 1013.0 |
| 20260906054704 | 72 | 62 | 0.0 | 0.0 | 0.00 | 0.43 | 0.00 | 97 | 1013.1 |
| 20260906054203 | 72 | 62 | 0.0 | 0.0 | 0.00 | 0.43 | 0.00 | 97 | 1013.1 |
| 20260906053704 | 72 | 62 | 0.0 | 0.0 | 0.00 | 0.43 | 0.00 | 97 | 1013.1 |
| 20260906053204 | 72 | 62 | 0.0 | 0.0 | 0.00 | 0.43 | 0.00 | 97 | 1013.1 |
| 20260906051703 | 72 | 62 | 0.0 | 0.0 | 0.00 | 0.43 | 0.00 | 97 | 1013.1 |
| 20260906051204 | 72 | 62 | 0.0 | 0.0 | 0.00 | 0.43 | 0.00 | 97 | 1013.1 |
| 20260906050703 | 72 | 62 | 0.0 | 0.0 | 0.00 | 0.43 | 0.00 | 97 | 1013.1 |
| 20260906050204 | 72 | 62 | 0.0 | 2.6 | 0.00 | 0.43 | 0.00 | 97 | 1013.0 |
| 20260906044704 | 72 | 35 | 0.0 | 2.6 | 0.00 | 0.43 | 0.00 | 97 | 1012.8 |
| 20260906044203 | 73 | 316 | 0.0 | 0.0 | 0.00 | 0.43 | 0.00 | 97 | 1012.9 |
| 20260906043703 | 73 | 316 | 0.0 | 0.0 | 0.00 | 0.43 | 0.00 | 97 | 1012.8 |
| 20260906043203 | 73 | 316 | 0.0 | 0.0 | 0.00 | 0.43 | 0.00 | 97 | 1012.8 |
| 20260906041703 | 73 | 316 | 0.0 | 0.0 | 0.00 | 0.43 | 0.00 | 97 | 1012.8 |
| 20260906041204 | 73 | 316 | 0.0 | 0.0 | 0.00 | 0.43 | 0.00 | 97 | 1012.8 |
| 20260906040705 | 73 | 316 | 0.0 | 0.0 | 0.00 | 0.43 | 0.00 | 97 | 1012.8 |
| 20260906040204 | 73 | 343 | 0.9 | 1.7 | 0.00 | 0.43 | 0.00 | 97 | 1012.7 |
| 20260906034203 | 73 | 36 | 2.6 | 5.2 | 0.00 | 0.43 | 0.43 | 97 | 1012.9 |
| 20260906033202 | 74 | 44 | 0.0 | 0.0 | 0.00 | 0.43 | 0.43 | 96 | 1013.1 |
| 20260906031703 | 74 | 44 | 0.0 | 0.0 | 0.00 | 0.43 | 0.43 | 96 | 1013.1 |
| 20260906031203 | 74 | 44 | 0.0 | 0.0 | 0.00 | 0.43 | 0.43 | 96 | 1013.2 |
| 20260906024702 | 74 | 22 | 0.9 | 4.3 | 0.00 | 0.43 | 0.43 | 96 | 1013.5 |
| 20260906024202 | 74 | 45 | 2.6 | 4.3 | 0.00 | 0.43 | 0.43 | 96 | 1013.5 |
| 20260906023702 | 74 | 10 | 0.9 | 2.6 | 0.00 | 0.43 | 0.43 | 96 | 1013.5 |
| 20260906023202 | 74 | 5 | 0.0 | 2.6 | 0.00 | 0.43 | 0.43 | 96 | 1013.5 |
| 20260906021702 | 74 | 38 | 0.9 | 1.7 | 0.00 | 0.43 | 0.43 | 96 | 1013.5 |
| 20260906020703 | 75 | 44 | 1.7 | 4.3 | 0.00 | 0.43 | 0.43 | 96 | 1013.2 |
| 20260906020203 | 75 | 53 | 2.6 | 4.3 | 0.00 | 0.43 | 0.43 | 96 | 1013.2 |
| 20260906014703 | 75 | 51 | 0.9 | 1.7 | 0.00 | 0.43 | 0.43 | 95 | 1013.3 |
| 20260906014202 | 75 | 23 | 0.0 | 0.0 | 0.00 | 0.43 | 0.43 | 95 | 1013.3 |
| 20260906013702 | 75 | 16 | 1.7 | 2.6 | 0.00 | 0.43 | 0.43 | 96 | 1012.9 |
| 20260906013203 | 75 | 34 | 1.7 | 2.6 | 0.00 | 0.43 | 0.43 | 95 | 1012.8 |
| 20260906011703 | 75 | 31 | 0.0 | 1.7 | 0.00 | 0.43 | 0.43 | 95 | 1012.6 |
| 20260906011203 | 75 | 55 | 0.9 | 4.3 | 0.00 | 0.43 | 0.43 | 94 | 1012.3 |
| 20260906010203 | 76 | 49 | 0.0 | 2.6 | 0.00 | 0.43 | 0.43 | 94 | 1012.3 |
| 20260906004702 | 76 | 34 | 0.9 | 1.7 | 0.00 | 0.43 | 0.43 | 93 | 1012.3 |
| 20260906004203 | 77 | 1 | 0.0 | 0.0 | 0.00 | 0.43 | 0.43 | 92 | 1012.4 |
| 20260906003703 | 77 | 1 | 0.0 | 0.0 | 0.00 | 0.43 | 0.43 | 92 | 1012.3 |
| 20260906003203 | 77 | 1 | 0.0 | 4.3 | 0.00 | 0.43 | 0.43 | 91 | 1012.2 |
| 20260906001702 | 78 | 14 | 0.0 | 0.0 | 0.00 | 0.43 | 0.43 | 89 | 1012.2 |
| 20260906001203 | 78 | 14 | 0.0 | 0.0 | 0.00 | 0.43 | 0.43 | 89 | 1012.1 |
| 20260906000703 | 79 | 14 | 0.9 | 0.9 | 0.00 | 0.43 | 0.43 | 88 | 1012.3 |
| 20260906000204 | 79 | 51 | 1.7 | 4.3 | 0.00 | 0.43 | 0.43 | 88 | 1012.2 |
| 20260905234703 | 80 | 17 | 0.0 | 0.0 | 0.00 | 0.43 | 0.43 | 84 | 1012.4 |
| 20260905234203 | 81 | 17 | 0.0 | 0.0 | 0.00 | 0.43 | 0.43 | 82 | 1012.4 |
| 20260905233702 | 82 | 17 | 0.0 | 0.0 | 0.00 | 0.43 | 0.43 | 81 | 1012.5 |
| 20260905233202 | 82 | 17 | 0.0 | 0.0 | 0.00 | 0.43 | 0.43 | 80 | 1012.5 |
| 20260905231703 | 83 | 17 | 0.0 | 0.0 | 0.00 | 0.43 | 0.43 | 75 | 1012.6 |
| 20260905231203 | 83 | 17 | 0.0 | 0.0 | 0.00 | 0.43 | 0.43 | 74 | 1012.7 |
| 20260905230702 | 83 | 17 | 0.0 | 0.0 | 0.00 | 0.43 | 0.43 | 75 | 1012.7 |
| 20260905230202 | 83 | 17 | 0.0 | 0.9 | 0.00 | 0.43 | 0.43 | 74 | 1012.6 |
| 20260905224702 | 83 | 40 | 0.0 | 1.7 | 0.00 | 0.43 | 0.43 | 74 | 1012.5 |
| 20260905224202 | 83 | 56 | 1.7 | 5.2 | 0.00 | 0.43 | 0.43 | 74 | 1012.5 |
| 20260905223702 | 83 | 49 | 3.5 | 5.2 | 0.00 | 0.43 | 0.43 | 73 | 1012.6 |
| 20260905223203 | 83 | 16 | 0.0 | 0.0 | 0.00 | 0.43 | 0.43 | 74 | 1012.6 |
| 20260905221702 | 84 | 16 | 0.0 | 0.0 | 0.00 | 0.43 | 0.43 | 72 | 1012.6 |
| 20260905220702 | 85 | 356 | 0.9 | 1.7 | 0.00 | 0.43 | 0.43 | 69 | 1012.4 |
| 20260905220203 | 86 | 344 | 0.0 | 4.3 | 0.00 | 0.43 | 0.43 | 67 | 1012.4 |
| 20260905214703 | 88 | 342 | 1.7 | 5.2 | 0.00 | 0.43 | 0.43 | 62 | 1012.3 |
| 20260905214203 | 89 | 309 | 2.6 | 5.2 | 0.00 | 0.43 | 0.43 | 62 | 1012.3 |
| 20260905213702 | 89 | 312 | 2.6 | 7.0 | 0.00 | 0.43 | 0.43 | 60 | 1012.3 |
| 20260905213203 | 90 | 264 | 2.6 | 7.8 | 0.00 | 0.43 | 0.43 | 59 | 1012.3 |
| 20260905211702 | 89 | 292 | 2.6 | 5.2 | 0.00 | 0.43 | 0.43 | 61 | 1012.2 |
| 20260905211203 | 88 | 315 | 3.5 | 7.0 | 0.00 | 0.43 | 0.43 | 61 | 1012.1 |
| 20260905210703 | 87 | 307 | 4.3 | 7.0 | 0.00 | 0.43 | 0.43 | 62 | 1012.1 |
| 20260905204703 | 88 | 249 | 3.5 | 7.8 | 0.00 | 0.43 | 0.43 | 60 | 1012.1 |
| 20260905204202 | 88 | 338 | 3.5 | 7.0 | 0.00 | 0.43 | 0.43 | 60 | 1012.0 |
| 20260905203203 | 86 | 346 | 2.6 | 7.0 | 0.00 | 0.43 | 0.43 | 64 | 1012.3 |
| 20260905201702 | 85 | 320 | 4.3 | 7.8 | 0.00 | 0.43 | 0.43 | 69 | 1012.5 |
| 20260905201202 | 86 | 305 | 5.2 | 7.8 | 0.00 | 0.43 | 0.43 | 65 | 1012.6 |
| 20260905200203 | 88 | 332 | 2.6 | 6.1 | 0.00 | 0.43 | 0.43 | 64 | 1012.6 |
| 20260905194702 | 86 | 2 | 3.5 | 5.2 | 0.00 | 0.43 | 0.43 | 64 | 1012.7 |
| 20260905194202 | 86 | 313 | 4.3 | 7.0 | 0.00 | 0.43 | 0.43 | 65 | 1012.8 |
| 20260905193202 | 86 | 343 | 0.9 | 2.6 | 0.00 | 0.43 | 0.43 | 68 | 1012.9 |
| 20260905191703 | 83 | 281 | 0.9 | 1.7 | 0.00 | 0.43 | 0.43 | 72 | 1013.0 |
| 20260905191203 | 83 | 286 | 0.9 | 2.6 | 0.00 | 0.43 | 0.43 | 72 | 1013.2 |
| 20260905190203 | 83 | 291 | 2.6 | 5.2 | 0.00 | 0.43 | 0.43 | 70 | 1013.4 |
| 20260905184703 | 85 | 274 | 3.5 | 5.2 | 0.00 | 0.43 | 0.43 | 70 | 1013.5 |
| 20260905184202 | 85 | 268 | 0.0 | 1.7 | 0.00 | 0.43 | 0.43 | 71 | 1013.5 |
| 20260905183703 | 84 | 321 | 0.9 | 2.6 | 0.00 | 0.43 | 0.43 | 72 | 1013.7 |
| 20260905183202 | 84 | 289 | 0.9 | 4.3 | 0.00 | 0.43 | 0.43 | 72 | 1013.7 |
| 20260905181702 | 84 | 256 | 1.7 | 4.3 | 0.00 | 0.43 | 0.43 | 73 | 1014.1 |
| 20260905181203 | 84 | 291 | 2.6 | 4.3 | 0.00 | 0.57 | 0.43 | 74 | 1014.1 |
| 20260905180702 | 84 | 283 | 2.6 | 4.3 | 0.00 | 0.58 | 0.43 | 71 | 1014.1 |
| 20260905180203 | 84 | 324 | 1.7 | 4.3 | 0.00 | 0.58 | 0.43 | 69 | 1014.1 |
| 20260905174202 | 84 | 341 | 1.7 | 4.3 | 0.00 | 0.58 | 0.43 | 71 | 1014.2 |
| 20260905173702 | 84 | 228 | 2.6 | 5.2 | 0.00 | 0.58 | 0.43 | 73 | 1014.2 |
| 20260905173203 | 84 | 219 | 0.9 | 5.2 | 0.00 | 0.58 | 0.43 | 74 | 1014.4 |
| 20260905171702 | 83 | 84 | 1.7 | 5.2 | 0.00 | 0.58 | 0.43 | 72 | 1014.5 |
| 20260905171202 | 83 | 96 | 1.7 | 4.3 | 0.00 | 0.58 | 0.43 | 76 | 1014.6 |
| 20260905170702 | 82 | 65 | 1.7 | 5.2 | 0.00 | 0.58 | 0.43 | 76 | 1014.6 |
| 20260905164702 | 81 | 159 | 2.6 | 6.1 | 0.00 | 0.58 | 0.43 | 77 | 1014.7 |
| 20260905164203 | 81 | 152 | 3.5 | 6.1 | 0.00 | 0.58 | 0.43 | 78 | 1014.8 |
| 20260905163702 | 81 | 137 | 2.6 | 6.1 | 0.00 | 0.58 | 0.43 | 80 | 1014.9 |
| 20260905163203 | 80 | 124 | 5.2 | 7.8 | 0.00 | 0.58 | 0.43 | 82 | 1014.9 |
| 20260905161703 | 79 | 72 | 0.9 | 6.1 | 0.00 | 0.58 | 0.43 | 81 | 1015.4 |
| 20260905161203 | 80 | 72 | 0.0 | 5.2 | 0.00 | 0.58 | 0.43 | 82 | 1015.4 |
| 20260905160702 | 80 | 322 | 1.7 | 2.6 | 0.00 | 0.58 | 0.43 | 84 | 1015.3 |
| 20260905154702 | 78 | 196 | 1.7 | 6.1 | 0.00 | 0.58 | 0.43 | 87 | 1015.3 |
| 20260905154202 | 78 | 82 | 2.6 | 4.3 | 0.00 | 0.58 | 0.43 | 86 | 1015.0 |
| 20260905153203 | 77 | 183 | 4.3 | 7.0 | 0.00 | 0.58 | 0.43 | 91 | 1014.6 |
| 20260905151702 | 75 | 224 | 5.2 | 7.0 | 0.00 | 0.58 | 0.43 | 92 | 1015.0 |
| 20260905151203 | 75 | 227 | 2.6 | 7.0 | 0.00 | 0.58 | 0.43 | 92 | 1015.1 |
| 20260905150203 | 76 | 216 | 4.3 | 7.0 | 0.00 | 0.58 | 0.43 | 93 | 1014.7 |
| 20260905144703 | 76 | 208 | 0.9 | 6.1 | 0.00 | 0.58 | 0.43 | 95 | 1014.5 |
| 20260905144202 | 76 | 196 | 1.7 | 6.1 | 0.00 | 0.58 | 0.43 | 95 | 1014.2 |
| 20260905143203 | 75 | 209 | 2.6 | 7.0 | 0.00 | 0.58 | 0.43 | 96 | 1014.6 |
| 20260905141703 | 74 | 187 | 5.2 | 7.0 | 0.00 | 0.58 | 0.43 | 96 | 1014.8 |
| 20260905141203 | 74 | 190 | 3.5 | 7.0 | 0.00 | 0.58 | 0.43 | 97 | 1015.0 |
| 20260905140703 | 74 | 193 | 0.9 | 5.2 | 0.01 | 0.58 | 0.43 | 97 | 1015.2 |
| 20260905140203 | 74 | 174 | 4.3 | 6.1 | 0.04 | 0.58 | 0.43 | 97 | 1015.3 |
| 20260905134702 | 73 | 79 | 0.0 | 0.0 | 0.14 | 0.58 | 0.43 | 98 | 1015.6 |
| 20260905134203 | 73 | 79 | 0.0 | 0.0 | 0.14 | 0.58 | 0.43 | 98 | 1015.8 |
| 20260905133703 | 73 | 79 | 0.0 | 0.0 | 0.14 | 0.58 | 0.43 | 98 | 1016.0 |
| 20260905133203 | 73 | 79 | 0.0 | 0.0 | 0.14 | 0.58 | 0.43 | 98 | 1016.3 |
| 20260905131703 | 72 | 79 | 0.0 | 0.0 | 0.33 | 0.58 | 0.43 | 98 | 1016.1 |
| 20260905131202 | 72 | 79 | 0.0 | 0.0 | 0.43 | 0.58 | 0.43 | 98 | 1016.1 |
| 20260905130203 | 72 | 79 | 0.0 | 0.0 | 0.39 | 0.54 | 0.39 | 98 | 1016.4 |
| 20260905124702 | 73 | 79 | 0.0 | 0.0 | 0.29 | 0.44 | 0.29 | 97 | 1015.7 |
| 20260905124202 | 73 | 79 | 0.0 | 0.0 | 0.29 | 0.44 | 0.29 | 97 | 1015.7 |
| 20260905123703 | 73 | 79 | 0.0 | 0.0 | 0.29 | 0.44 | 0.29 | 97 | 1015.8 |
| 20260905123203 | 73 | 79 | 0.0 | 4.3 | 0.29 | 0.44 | 0.29 | 97 | 1015.8 |
| 20260905121703 | 74 | 40 | 2.6 | 7.8 | 0.10 | 0.25 | 0.10 | 94 | 1016.0 |